[[{"header":{"parameterUnit":"m.s-1","parameterCategory":1,"la1":30.2991,"la2":30.254,"lo1":-89.0895,"lo2":-89.0444,"dy":0.0017,"dx":0.0017,"nx":28,"ny":28,"refTime":"2023-07-30T21:00:00:Z","depth":0,"parameterNumber":2,"parameterNumberName":"U-component_of_WINDS"},"data":[0,0,0,0,0,0,0,0,0,0,0,0,0,0,0,0,0,0,0,0,0,0,0,0,0,0,0,0,0,0,0,0,0,0,0,0,0,0,0,0,0,0,0,0,0,0,0,0,0,0,0,0,0,0,0,0,0,0,2.1359,2.136,0,2.1502,2.1504,2.1505,2.1528,2.1526,2.1525,2.1524,2.1675,2.168,2.1685,0,0,0,0,0,0,0,0,0,0,0,0,0,2.1107,2.1111,2.1359,2.1361,2.1362,2.1502,2.1504,2.1506,2.1528,2.1526,2.1525,2.1523,2.1673,2.1679,2.1685,0,0,0,0,0,0,0,0,0,0,0,0,0,2.123,2.1113,2.1358,2.139,2.1394,2.1502,2.1504,2.1506,2.1528,2.1526,2.1524,2.1523,2.1671,2.1678,2.1686,2.1773,0,0,2.171,2.1713,0,0,0,0,0,0,0,0,2.1223,2.1239,2.1384,2.1388,2.1393,2.1495,2.147,2.1596,2.1529,2.1478,2.1524,2.1522,2.1617,2.1629,2.166,2.178,2.1786,2.1711,2.1715,2.1719,2.1721,0,0,0,0,0,0,0,2.1214,2.1233,2.1416,2.1386,2.1392,2.1398,2.1413,2.1494,2.1556,2.1482,2.1484,2.15,2.1619,2.1652,2.1664,2.1789,2.171,2.1717,2.1722,2.1725,2.1985,2.1987,0,0,0,0,0,0,2.12,2.1226,2.1411,2.142,2.1301,2.1404,2.1421,2.1464,2.1555,2.1567,2.1502,2.1501,2.164,2.1655,2.1669,2.1775,2.1719,2.1726,2.173,2.1983,2.1986,2.1988,0,0,0,0,0,0,2.1194,2.1216,2.1405,2.1323,2.1348,2.141,2.1459,2.1468,2.1502,2.157,2.1582,2.1524,2.1639,2.1658,2.1746,2.1781,2.173,2.1737,2.198,2.1984,2.1987,2.1988,0,0,0,0,0,0,2.1187,2.1214,2.1247,2.1324,2.1352,2.1479,2.1461,2.1472,2.1515,2.1515,2.1595,2.1606,2.1639,2.1734,2.1754,2.179,2.1743,2.1978,2.1982,2.1986,2.1985,2.1991,2.1996,0,0,0,0,0,2.1178,2.1243,2.1248,2.1271,2.1395,2.1481,2.1497,2.1533,2.1517,2.1551,2.1595,2.1604,2.1774,2.1743,2.1765,2.1805,2.1976,2.1981,2.1986,2.1983,2.199,2.1996,0,0,0,0,0,0,2.1169,2.1253,2.1261,2.1352,2.1409,2.1484,2.1528,2.1539,2.1603,2.16,2.1643,2.1661,2.1746,2.1785,2.1749,2.1893,2.1874,2.1883,2.1864,2.1871,2.1877,2.1865,2.1749,0,0,0,0,0,2.1178,2.124,2.1311,2.1385,2.1413,2.1465,2.1505,2.1527,2.1588,2.1612,2.1663,2.1723,2.179,2.1833,2.1899,2.1992,2.2009,2.203,2.2035,2.2039,2.2047,2.2097,2.2107,2.2005,2.2005,2.2005,0,0,2.1196,2.125,2.1287,2.1384,2.1431,2.1494,2.1486,2.1554,2.1602,2.1623,2.1708,2.1748,2.1818,2.1908,2.195,2.1943,2.2079,2.2046,2.2048,2.2054,2.2103,2.2113,2.2121,2.2008,2.2007,2.2007,0,0,2.1262,2.131,2.1376,2.1422,2.1492,2.1527,2.1543,2.1617,2.1643,2.1729,2.1746,2.1805,2.1919,2.1968,2.2007,2.2091,2.2101,2.2112,2.2139,2.2188,2.2196,2.2203,2.2231,2.2241,2.2119,2.2119,2.2119,0,2.1277,2.1372,2.1408,2.1475,2.1517,2.1539,2.1605,2.165,2.1738,2.1767,2.1757,2.19,2.1949,2.205,2.207,2.2102,2.2121,2.2102,2.2192,2.2199,2.2207,2.2234,2.2245,2.212,2.212,2.212,2.212,0,2.1386,2.1452,2.1497,2.158,2.1627,2.1694,2.1741,2.1785,2.1803,2.1839,2.1926,2.1985,2.2062,2.2088,2.2108,2.2192,2.2185,2.2183,2.2164,2.2216,2.2243,2.2254,2.2121,2.212,2.212,2.212,0,0,2.145,2.1551,2.1567,2.1604,2.1683,2.1735,2.1803,2.1877,2.1913,2.1974,2.2031,2.2128,2.2126,2.2171,2.2196,2.2239,2.2299,2.2232,2.2234,2.2241,2.2394,2.2393,2.2405,2.2307,2.2309,2.2311,2.2388,0,2.1523,2.1643,2.1677,2.1779,2.1839,2.1861,2.192,2.1975,2.201,2.2068,2.2108,2.2174,2.2168,2.2195,2.2239,2.2282,2.233,2.2278,2.236,2.2363,2.234,2.2419,2.2419,2.2489,2.2398,2.24,2.2402,0,2.1625,2.1685,2.1792,2.1862,2.1889,2.1941,2.2011,2.2066,2.2129,2.2152,2.2201,2.2222,2.2294,2.2273,2.2372,2.2336,2.2372,2.2399,2.2402,2.241,2.2384,2.2427,2.2512,2.2522,2.2418,2.2417,2.2416,0,2.1658,2.1767,2.1844,2.1876,2.196,2.1996,2.2032,2.2094,2.2135,2.2197,2.2225,2.2295,2.2333,2.2387,2.2426,2.2407,2.2522,2.2504,2.2542,2.2541,2.2564,2.2562,2.2654,2.259,2.259,2.259,2.259,0,2.1735,2.1799,2.186,2.1907,2.1979,2.2019,2.209,2.2128,2.2182,2.2237,2.2261,2.2313,2.2363,2.2422,2.2454,2.253,2.2548,2.2568,2.2575,2.2565,2.2562,2.2588,2.2583,2.2593,2.2592,2.2592,2.2591,0,2.1784,2.1827,2.1912,2.1984,2.2004,2.2054,2.2116,2.2163,2.2199,2.2269,2.2288,2.2346,2.2416,2.2461,2.2551,2.2572,2.2656,2.2663,2.2633,2.2636,2.2672,2.2667,2.2782,2.2799,2.2726,2.2726,2.2727,0,2.1829,2.1879,2.1956,2.1994,2.203,2.2092,2.2134,2.2175,2.2219,2.2294,2.2332,2.2403,2.2462,2.2573,2.2624,2.2692,2.27,2.2736,2.2711,2.2698,2.2699,2.2694,2.2699,2.2739,2.274,2.274,2.2741,0,2.1905,2.1923,2.1983,2.2049,2.2099,2.2154,2.2209,2.2239,2.229,2.2337,2.2408,2.2454,2.2545,2.2616,2.2689,2.2728,2.2743,2.2748,2.2761,2.2749,2.273,2.2739,2.2642,2.2745,2.2745,2.2744,2.2744,2.2744,2.1952,2.1996,2.2057,2.2122,2.2167,2.2218,2.2265,2.2307,2.2366,2.2442,2.2464,2.2538,2.2599,2.2699,2.2739,2.2798,2.2794,2.2812,2.2816,2.282,2.2819,2.2721,2.2812,2.2812,2.2812,2.2812,2.2812,0,2.2027,2.2067,2.2126,2.2201,2.2253,2.2262,2.2323,2.2365,2.2429,2.2485,2.2542,2.2624,2.2692,2.2747,2.2818,2.2854,2.2863,2.2871,2.2868,2.2877,2.282,2.2801,2.2863,2.2863,2.2863,2.2863,2.2863,2.2863,2.2072,2.2146,2.2172,2.227,2.231,2.2381,2.2415,2.2462,2.2506,2.2595,2.2652,2.2687,2.2743,2.2817,2.288,2.2895,2.2919,2.2926,2.2941,2.2887,2.2881,2.2875,2.2858,2.2931,2.2931,2.2993,2.2994,2.2994]},{"header":{"parameterUnit":"m.s-1","parameterCategory":1,"la1":30.2991,"la2":30.254,"lo1":-89.0895,"lo2":-89.0444,"dy":0.0017,"dx":0.0017,"nx":28,"ny":28,"refTime":"2023-07-30T21:00:00:Z","depth":0,"parameterNumber":3,"parameterNumberName":"V-component_of_WINDS"},"data":[0,0,0,0,0,0,0,0,0,0,0,0,0,0,0,0,0,0,0,0,0,0,0,0,0,0,0,0,0,0,0,0,0,0,0,0,0,0,0,0,0,0,0,0,0,0,0,0,0,0,0,0,0,0,0,0,0,0,3.6864,3.6864,0,3.6833,3.6833,3.6833,3.6764,3.6762,3.6761,3.676,3.673,3.673,3.6731,0,0,0,0,0,0,0,0,0,0,0,0,0,3.6865,3.6865,3.6864,3.6864,3.6863,3.6833,3.6833,3.6833,3.6764,3.6762,3.676,3.6759,3.673,3.673,3.6731,0,0,0,0,0,0,0,0,0,0,0,0,0,3.6853,3.6865,3.6864,3.6825,3.6822,3.6834,3.6833,3.6833,3.6764,3.6762,3.676,3.6758,3.6729,3.673,3.6731,3.6778,0,0,3.6733,3.6734,0,0,0,0,0,0,0,0,3.6853,3.6853,3.6832,3.6828,3.6824,3.68,3.6822,3.6814,3.6765,3.6786,3.6759,3.6757,3.6755,3.6754,3.6753,3.6777,3.6776,3.6733,3.6734,3.6734,3.6734,0,0,0,0,0,0,0,3.6854,3.6854,3.6852,3.6831,3.6827,3.681,3.6806,3.6821,3.6783,3.6784,3.6779,3.6776,3.6753,3.6752,3.6751,3.6775,3.6733,3.6734,3.6735,3.6735,3.6837,3.6839,0,0,0,0,0,0,3.6861,3.6855,3.6853,3.6851,3.6834,3.6812,3.6807,3.681,3.6783,3.6776,3.6778,3.6773,3.6752,3.675,3.675,3.6803,3.6734,3.6735,3.6735,3.6835,3.6837,3.684,0,0,0,0,0,0,3.6861,3.6861,3.6854,3.6852,3.6849,3.6814,3.6818,3.6811,3.681,3.6778,3.6771,3.6784,3.675,3.6749,3.6772,3.6801,3.6735,3.6736,3.6832,3.6836,3.6839,3.6911,0,0,0,0,0,0,3.6861,3.6862,3.6879,3.6852,3.685,3.6876,3.682,3.6811,3.6811,3.6804,3.6782,3.6776,3.6748,3.6771,3.6772,3.6801,3.6737,3.6829,3.6834,3.6838,3.6905,3.6916,3.6925,0,0,0,0,0,3.6861,3.6901,3.688,3.688,3.6871,3.6878,3.6877,3.6843,3.6814,3.6831,3.6811,3.6777,3.6798,3.6774,3.6775,3.6804,3.6827,3.6832,3.6837,3.6901,3.6914,3.6925,0,0,0,0,0,0,3.6932,3.6897,3.6873,3.6905,3.6895,3.6866,3.6887,3.6858,3.6856,3.685,3.6809,3.6804,3.6833,3.6821,3.6795,3.6849,3.6807,3.6813,3.6855,3.6867,3.6877,3.6879,3.6737,0,0,0,0,0,3.6952,3.696,3.6929,3.696,3.6956,3.6923,3.6925,3.69,3.6888,3.6883,3.6864,3.6855,3.6859,3.6862,3.6865,3.6904,3.6898,3.6925,3.6934,3.6943,3.6948,3.6967,3.6978,3.6856,3.6856,3.6856,0,0,3.6992,3.6973,3.6981,3.6974,3.6963,3.6973,3.6919,3.6932,3.6939,3.6885,3.6905,3.6891,3.6878,3.6909,3.6921,3.69,3.698,3.6949,3.6956,3.6956,3.6973,3.6985,3.6995,3.686,3.6859,3.6859,0,0,3.7069,3.7057,3.7081,3.7071,3.7055,3.7033,3.7039,3.7014,3.7003,3.7022,3.6981,3.699,3.6998,3.699,3.6987,3.7062,3.7031,3.7064,3.7115,3.7134,3.7144,3.7152,3.7178,3.7188,3.7069,3.7069,3.7069,0,3.7121,3.7134,3.7097,3.7112,3.711,3.7061,3.7086,3.7078,3.7064,3.7064,3.704,3.7049,3.7037,3.7065,3.7083,3.7083,3.7088,3.7066,3.7145,3.7153,3.716,3.7185,3.7195,3.7073,3.7073,3.7072,3.7072,0,3.7198,3.7208,3.7229,3.7216,3.7217,3.7237,3.7203,3.7208,3.7184,3.7164,3.7184,3.7168,3.7165,3.717,3.7147,3.7195,3.7182,3.7153,3.711,3.7177,3.7199,3.7208,3.7079,3.7078,3.7076,3.7075,0,0,3.7319,3.7285,3.7293,3.7287,3.7266,3.7273,3.7291,3.7288,3.7293,3.7285,3.7299,3.7308,3.728,3.7276,3.7251,3.7269,3.7329,3.7236,3.7236,3.7254,3.7381,3.7403,3.7414,3.7308,3.731,3.7311,3.7382,0,3.7391,3.7418,3.7386,3.7421,3.7429,3.7383,3.7399,3.7388,3.737,3.7375,3.7356,3.7362,3.7325,3.7323,3.7338,3.7318,3.7353,3.7313,3.7321,3.7321,3.7325,3.7426,3.7449,3.7516,3.739,3.7392,3.7393,0,3.7478,3.7474,3.7509,3.7486,3.7488,3.7503,3.7497,3.7503,3.749,3.7476,3.7472,3.7442,3.7458,3.7418,3.744,3.7413,3.7414,3.7405,3.7407,3.7406,3.7361,3.7427,3.7537,3.7547,3.7406,3.7405,3.7404,0,3.7561,3.7565,3.7586,3.7582,3.7556,3.7567,3.7557,3.7541,3.7542,3.7538,3.7538,3.7536,3.7535,3.7534,3.7505,3.7478,3.7531,3.7487,3.7519,3.752,3.7532,3.7531,3.7643,3.7534,3.7534,3.7534,3.7534,0,3.7645,3.7668,3.7623,3.7636,3.7661,3.7624,3.765,3.7635,3.7622,3.7632,3.7593,3.7603,3.7564,3.757,3.7547,3.7569,3.7569,3.7558,3.7551,3.7561,3.7562,3.7561,3.7555,3.7537,3.7536,3.7536,3.7535,0,3.7742,3.7712,3.7733,3.7706,3.77,3.772,3.7697,3.7708,3.7688,3.7701,3.7702,3.7671,3.7676,3.7647,3.7647,3.7632,3.7664,3.765,3.7668,3.7664,3.7697,3.7695,3.7812,3.7825,3.7709,3.771,3.7711,0,3.7796,3.7813,3.7788,3.7791,3.7783,3.7789,3.7789,3.7754,3.7756,3.7742,3.7755,3.7757,3.7757,3.7767,3.7745,3.7745,3.773,3.7772,3.773,3.7739,3.773,3.7729,3.7731,3.778,3.7781,3.7783,3.7784,0,3.7896,3.788,3.7882,3.7878,3.7879,3.7875,3.7868,3.7874,3.7835,3.784,3.7844,3.7844,3.7844,3.7846,3.7842,3.7832,3.7802,3.7797,3.7804,3.7814,3.7824,3.7818,3.7691,3.7794,3.7793,3.7792,3.7792,3.7791,3.7972,3.7985,3.7969,3.7972,3.7963,3.7958,3.7967,3.7948,3.7951,3.7948,3.7927,3.7936,3.7923,3.7913,3.7906,3.7913,3.7893,3.7904,3.7907,3.791,3.7916,3.7823,3.7912,3.7912,3.7911,3.7911,3.7911,0,3.8069,3.8057,3.806,3.8051,3.8054,3.8025,3.8016,3.802,3.8028,3.8018,3.8018,3.8024,3.8026,3.8004,3.8004,3.8013,3.8,3.8015,3.8013,3.8011,3.7933,3.7927,3.8026,3.8026,3.8026,3.8026,3.8026,3.8026,3.812,3.8139,3.8123,3.8138,3.8125,3.8133,3.813,3.8125,3.8117,3.8125,3.8127,3.8112,3.8098,3.8096,3.8097,3.8091,3.8092,3.8112,3.8101,3.8028,3.8017,3.8006,3.8,3.8112,3.8113,3.8178,3.8179,3.8179]}]]